Weather History for LIEB - September, 2012

Change the Weather History Date:

Monday, September 10, 2012

  Actual Average (LIED) Record (LIED)
Temperature  
Mean Temperature 76 °F -  
Max Temperature 86 °F 76 °F 91 °F (2008)
Min Temperature 67 °F 64 °F 59 °F (2000)
Cooling Degree Days 12    
Growing Degree Days 26 (Base 50)    
Moisture  
Dew Point 68 °F    
Average Humidity 76    
Maximum Humidity 88    
Minimum Humidity 56    
Precipitation  
Precipitation 0.00 in 0.07 in - ()
Sea Level Pressure  
Sea Level Pressure 30.05 in    
Wind  
Wind Speed 6 mph ()    
Max Wind Speed 10 mph    
Max Gust Speed -    
Visibility 7.4 miles    
Events      
Averages and records for this station are not official NWS values.
T = Trace of Precipitation, MM = Missing Value Source: Averaged Metar Reports

Daily Weather History Graph

Daily Weather History Graph

Search for Another Location

Airport or City:

Trip Planner

Search our weather history database for the weather conditions in past years. The results will help you decide how hot, cold, wet, or windy it might be!

Date:

Astronomy

Sep. 10, 2012 Rise Set
Actual Time 6:57 AM CEST 7:37 PM CEST
Civil Twilight 6:30 AM CEST 8:04 PM CEST
Nautical Twilight 5:58 AM CEST 8:37 PM CEST
Astronomical Twilight 5:24 AM CEST 9:10 PM CEST
Moon 1:04 AM CEST (9/10) 3:55 PM CEST (9/10)
Length of Visible Light 13h 34m
Length of Day
12h 40m
Waning Crescent, 32% of the Moon is Illuminated
Sep 10
Waning Crescent
Sep 16
New
Sep 22
First Quarter
Sep 30
Full
Oct 8
Last Quarter

Hourly Weather History & Observations

Time (CEST) Temp. Heat Index Dew Point Humidity Pressure Visibility Wind Dir Wind Speed Gust Speed Precip Events Conditions
12:55 AM 69.8 °F - 64.4 °F 83% 30.04 in - WNW 8.1 mph - N/A   Clear
1:55 AM 68.0 °F - 64.4 °F 88% 30.04 in - NW 8.1 mph - N/A   Clear
2:00 AM 69 °F - 64 °F 78% 30.04 in 12 mi NW 8.1 mph - -  
2:55 AM 68.0 °F - 62.6 °F 83% 30.04 in - NW 6.9 mph - N/A   Clear
6:55 AM 69.8 °F - 62.6 °F 78% 30.04 in - NW 9.2 mph - N/A   Clear
7:55 AM 68.0 °F - 64.4 °F 88% 30.04 in - NW 6.9 mph - N/A   Clear
8:00 AM 68 °F - 64 °F 83% 30.03 in 12 mi NW 6.9 mph - -  
8:55 AM 71.6 °F - 64.4 °F 78% 30.04 in - NW 3.5 mph - N/A   Clear
9:55 AM 73.4 °F - 66.2 °F 78% 30.04 in 6.2 mi NW 2.3 mph - N/A   Partly Cloudy
10:55 AM 82.4 °F 86.3 °F 69.8 °F 66% 30.06 in 6.2 mi East 5.8 mph - N/A   Partly Cloudy
11:55 AM 84.2 °F 89.6 °F 71.6 °F 66% 30.06 in 6.2 mi East 8.1 mph - N/A   Partly Cloudy
12:55 PM 84.2 °F 89.6 °F 71.6 °F 66% 30.06 in 6.2 mi ESE 10.4 mph - N/A   Partly Cloudy
1:55 PM 84.2 °F 89.6 °F 71.6 °F 66% 30.06 in 6.2 mi ESE 9.2 mph - N/A   Partly Cloudy
2:00 PM 84 °F - 71 °F 56% 30.07 in 12 mi ESE 9.2 mph - -   Scattered Clouds
2:55 PM 86.0 °F 91.8 °F 71.6 °F 62% 30.06 in 6.2 mi SE 8.1 mph - N/A   Partly Cloudy
3:55 PM 82.4 °F 87.2 °F 71.6 °F 70% 30.06 in 6.2 mi South 3.5 mph - N/A   Partly Cloudy
4:55 PM 82.4 °F 86.3 °F 69.8 °F 66% 30.06 in 6.2 mi South 5.8 mph - N/A   Partly Cloudy
5:55 PM 82.4 °F 86.3 °F 69.8 °F 66% 30.06 in 6.2 mi South 3.5 mph - N/A   Partly Cloudy
6:55 PM 77.0 °F - 68.0 °F 74% 30.06 in 6.2 mi South 2.3 mph - N/A   Partly Cloudy
7:55 PM 75.2 °F - 69.8 °F 83% 30.06 in 6.2 mi South 2.3 mph - N/A   Partly Cloudy
8:00 PM 75 °F - 70 °F 79% 30.05 in 12 mi South 2.3 mph - -   Scattered Clouds
8:55 PM 75.2 °F - 69.8 °F 83% 30.06 in 6.2 mi South 2.3 mph - N/A   Partly Cloudy
9:55 PM 73.4 °F - 69.8 °F 88% 30.06 in 6.2 mi WSW 2.3 mph - N/A   Partly Cloudy
10:55 PM 71.6 °F - 68.0 °F 88% 30.06 in 6.2 mi WNW 6.9 mph - N/A   Partly Cloudy
11:55 PM 71.6 °F - 68.0 °F 88% 30.06 in 6.2 mi WNW 6.9 mph - N/A   Partly Cloudy